GFSSGP_con_mucape_318.txt.gz
CAPE
271 0 0 0 0 0 0 0 0 0 0 0 4 0 0 0 4 95 438 553 465 845 1181 1532 1799 1826 1756 1851 1750 1703 1839 1768 1964 1669 1219 1235 1389 1544 1387 1390 1410 1531 1362 1163 1026 1056 987 875 838
4 0 0 0 0 0 0 0 0 0 0 2 0 4 93 203 347 510 598 753 298 1116 1245 1506 1640 1821 1950 1843 1642 1677 1532 1574 1841 1844 1515 1126 1263 1487 1475 1216 1296 1398 1272 1064 945 917 843 770 540
0 0 0 0 0 0 0 0 0 70 5 2 111 267 399 511 382 411 623 783 328 1298 1288 1675 1929 1742 1826 2040 2070 1860 1633 1703 1619 1537 1348 906 1098 1259 1274 1159 1264 1203 1179 882 761 741 703 580 391
0 0 0 0 0 0 0 0 0 34 6 36 166 533 476 370 408 554 840 538 820 1387 1376 1504 1764 1931 1975 1778 1646 1603 1654 1486 1399 1232 1065 902 860 953 926 942 1096 1451 1306 973 744 641 601 572 516
0 0 0 0 0 0 0 0 154 25 101 187 198 318 340 357 657 713 995 443 1133 1441 1384 1566 1833 1915 1764 1483 1021 1115 1301 1256 1200 1123 934 896 882 786 868 852 1160 1292 1095 633 633 687 651 645 453
0 0 0 0 0 0 0 0 218 44 222 223 285 324 366 599 1056 832 1028 560 1313 1491 1422 1167 1505 1667 1452 1241 1188 1034 1116 1211 1270 1236 960 902 827 843 844 756 805 781 539 421 413 432 614 488 239
0 0 0 0 0 0 0 0 140 137 262 259 279 287 461 614 841 732 1152 962 820 1438 1319 1329 1085 818 984 882 866 921 1056 1257 1126 1158 1162 993 706 672 665 622 515 475 372 264 398 545 618 351 101
0 0 0 0 0 0 0 0 0 192 260 236 132 182 378 663 1074 779 1050 1220 588 818 1076 1005 867 570 672 432 610 666 802 841 915 706 501 441 528 684 728 667 648 365 266 122 116 504 440 159 6
0 0 0 0 0 0 0 0 0 19 265 221 96 45 342 689 892 908 1258 1033 864 713 787 734 587 433 481 780 353 614 526 420 222 46 0 29 122 148 183 74 320 443 273 28 0 0 0 0 0
0 0 0 0 0 0 0 0 0 115 223 202 187 272 617 666 905 933 1155 1010 892 902 760 781 716 477 560 549 795 746 283 116 67 15 27 64 63 54 0 0 1 0 0 0 0 0 0 0 0
0 0 0 0 0 0 0 0 0 55 156 153 233 426 861 1115 897 375 809 653 897 899 757 805 800 593 491 484 878 763 271 76 25 0 14 23 23 14 11 0 0 0 0 0 0 0 0 0 0
0 0 0 0 0 0 0 0 0 25 13 37 181 414 720 843 584 343 604 872 665 892 623 637 789 745 483 577 555 585 116 69 28 0 4 11 27 13 0 0 0 0 0 0 0 0 0 0 0
0 0 0 0 0 0 0 0 0 2 0 14 339 528 731 591 401 425 287 345 376 718 676 478 737 706 601 546 370 249 48 70 45 11 7 3 10 19 5 0 0 0 0 0 0 0 0 0 0
0 0 0 0 0 0 0 0 0 0 4 203 483 587 765 812 563 370 424 514 409 398 530 612 624 679 550 369 235 133 70 52 29 28 15 6 24 10 1 0 0 0 0 0 0 0 0 0 0
0 0 0 0 0 0 0 0 0 0 83 311 435 504 486 405 358 360 287 294 311 315 531 360 744 624 606 447 229 95 89 57 31 25 13 8 18 1 1 1 2 0 0 0 0 0 0 0 0
0 0 0 0 0 0 0 0 0 1 149 304 366 464 434 336 292 296 367 321 313 245 239 473 696 485 637 490 305 89 107 86 33 18 11 0 4 0 0 5 2 0 0 0 0 0 0 0 0
0 0 0 0 0 0 0 0 0 9 70 262 346 408 362 322 278 266 286 230 281 229 126 404 595 662 577 500 365 101 99 105 28 25 19 3 2 0 6 10 2 0 0 0 0 0 0 0 0
0 0 0 0 0 0 0 0 0 32 56 227 328 281 268 327 310 231 232 237 256 376 440 577 620 425 432 432 105 58 45 41 28 24 34 10 8 6 8 8 0 0 0 0 0 0 0 0 0
0 0 0 0 0 0 0 0 0 13 85 106 183 150 192 234 307 250 212 231 267 339 307 278 273 226 273 30 24 19 32 4 10 33 24 18 16 11 13 6 0 0 0 0 0 0 0 0 0
0 0 0 0 0 0 0 0 0 0 67 75 115 117 120 187 238 270 251 253 254 268 273 204 137 84 160 17 18 26 6 7 14 5 6 28 13 13 9 0 0 0 0 0 0 0 0 0 0
0 0 0 0 0 0 0 0 0 0 0 30 42 89 110 169 241 242 238 241 249 304 249 95 67 84 64 16 12 14 8 4 2 7 6 28 7 5 0 1 0 0 0 0 0 0 0 0 0
0 0 0 0 0 0 0 0 0 0 0 0 0 23 53 84 132 209 225 243 322 336 249 108 42 58 48 16 8 14 17 12 13 12 8 11 7 1 0 0 0 0 0 0 0 0 0 0 0
0 0 0 0 0 0 0 0 0 0 0 0 0 0 13 30 104 167 214 278 277 303 306 156 55 59 30 14 8 19 21 12 6 15 13 11 9 1 0 0 1 0 0 0 0 0 0 0 0
0 0 0 0 0 0 0 0 0 0 0 0 0 0 0 14 38 83 134 174 201 266 259 260 92 49 44 15 4 8 25 16 7 1 2 3 9 0 0 0 1 0 0 0 0 0 0 0 0
0 0 0 0 0 0 0 0 0 0 0 0 0 0 0 0 12 45 63 93 140 194 191 208 162 101 69 6 0 7 6 18 11 1 0 3 2 3 0 0 0 0 0 0 0 0 0 0 0
0 0 0 0 0 0 0 0 0 0 0 0 0 0 0 0 0 3 34 58 81 94 81 138 135 148 98 29 1 7 7 23 5 7 8 0 2 4 0 0 3 5 0 0 0 0 0 0 0
0 0 0 0 0 0 0 0 0 0 0 0 0 0 0 0 0 0 0 3 43 35 56 165 97 117 90 68 1 4 99 21 30 16 19 18 21 1 0 0 0 10 2 1 0 0 0 0 0
0 0 0 0 0 0 0 0 0 0 0 0 0 0 0 0 0 0 0 0 5 37 27 55 74 62 80 42 57 2 3 24 24 36 31 23 33 0 0 5 0 11 12 3 1 0 0 0 0
0 0 0 0 0 0 0 0 0 0 0 0 0 0 0 0 0 0 0 0 0 0 2 11 6 29 72 28 55 39 42 45 41 45 35 51 21 0 2 14 19 44 25 10 11 2 8 6 0
0 0 0 0 0 0 0 0 0 0 0 0 0 0 0 0 0 0 0 0 0 0 0 2 0 0 3 31 51 81 63 110 153 84 51 37 19 7 16 27 53 53 31 25 9 4 14 8 0

GFSSGP_con_mucape_321.txt.gz
CAPE
354 151 8 0 0 0 46 18 0 34 37 0 0 0 0 22 86 406 274 420 127 734 1082 1431 1916 1696 1725 1534 1687 1535 1504 1665 1979 1804 1673 1768 1623 1394 1448 1614 1483 1323 1223 1100 1077 1077 1035 865 593
14 0 0 0 0 2 18 6 0 30 2 0 0 0 12 320 411 379 457 199 402 735 1040 1180 1877 2065 1903 1853 1774 1855 1619 1753 1846 1786 1636 1524 1316 1323 1430 1471 1315 1244 1067 955 923 854 768 632 410
47 0 0 0 0 1 41 0 0 28 0 3 143 42 335 560 305 294 515 98 581 805 1187 1383 1855 1993 1827 1737 1674 1584 1383 1475 1730 1705 1671 1501 1354 1365 1409 1416 1160 1234 1060 809 734 677 537 411 313
0 0 0 0 0 0 7 0 25 129 25 3 148 488 511 458 252 411 421 164 718 1108 1234 1444 1728 1751 1880 1851 1679 1540 1586 1657 1578 1472 1450 1209 1147 1132 1274 1124 1289 1361 1116 648 612 610 613 501 291
0 0 0 0 0 0 0 0 135 153 151 45 194 451 422 384 371 577 265 478 1058 1151 1273 1477 1826 1987 1783 1550 1598 1661 1666 1572 1471 1208 1009 948 988 967 1053 1098 1263 1111 957 707 629 616 593 331 112
0 0 0 0 0 0 0 0 147 110 199 162 232 467 330 453 489 600 265 825 1119 1258 1332 1186 1318 1580 1401 1397 1214 1264 1440 1463 1458 1426 1235 882 792 856 989 929 1051 646 546 506 617 590 400 151 38
0 0 0 0 0 0 0 0 140 86 210 237 389 469 321 414 567 642 396 802 1136 1240 1158 1043 749 712 906 837 921 1053 1298 1181 1234 1145 1029 995 991 624 739 779 661 465 435 631 605 663 332 85 1
0 0 0 0 0 0 0 0 103 124 280 262 302 506 379 443 705 577 424 971 1231 993 1065 749 615 560 536 459 541 623 681 716 858 780 626 584 687 812 788 686 647 389 215 588 697 505 184 24 0
0 0 0 0 0 0 0 0 0 166 381 308 223 223 315 485 690 815 609 658 940 884 774 596 520 607 382 490 322 435 392 275 104 54 116 165 260 351 322 254 401 388 185 42 84 101 42 0 0
0 0 0 0 0 0 0 0 5 295 439 317 183 239 557 591 975 868 911 659 480 695 687 517 406 684 525 237 435 404 194 100 8 2 59 116 116 105 39 4 18 75 7 0 0 0 0 3 0
0 0 0 0 0 0 0 0 14 175 415 369 274 538 579 612 703 1091 906 594 299 500 505 770 454 491 455 426 802 259 99 61 36 34 48 38 0 3 0 0 0 0 0 0 0 0 0 0 0
0 0 0 0 0 0 0 0 18 124 357 207 197 596 824 687 828 945 1130 817 659 446 363 732 341 487 381 606 761 317 65 32 16 13 15 24 26 14 5 4 3 1 0 0 0 0 0 0 0
0 0 0 0 0 0 0 0 90 125 16 64 269 514 577 693 672 506 631 610 672 781 563 688 741 537 383 415 493 271 62 52 13 3 1 4 12 12 3 2 1 0 0 0 0 0 0 0 0
0 0 0 0 0 0 0 0 23 60 0 76 355 461 492 534 505 454 512 520 762 723 643 676 678 648 529 549 318 177 42 49 30 18 1 4 11 9 4 3 2 0 0 0 0 0 0 0 0
0 0 0 0 0 0 0 0 0 6 0 241 392 459 406 483 316 328 453 527 789 862 562 597 833 714 358 405 196 156 94 48 28 12 7 6 12 7 7 8 6 1 0 0 0 0 0 0 0
0 0 0 0 0 0 0 0 0 0 60 243 343 483 482 417 352 251 258 372 366 467 518 692 951 700 470 695 173 122 152 51 27 14 10 9 9 6 9 13 6 1 0 0 0 0 0 0 0
0 0 0 0 0 0 0 0 0 0 48 170 239 369 431 359 347 260 197 266 435 465 536 480 759 519 577 440 221 97 156 38 20 20 23 12 10 5 13 20 7 0 0 0 0 0 0 0 0
0 0 0 0 0 0 0 0 0 2 30 145 219 308 365 288 267 269 228 180 255 375 411 566 820 481 538 634 453 208 226 81 14 16 17 18 15 12 21 24 6 0 0 0 0 0 0 0 0
0 0 0 0 0 0 0 0 0 1 12 99 183 269 326 316 222 180 229 234 260 325 325 307 345 653 544 589 386 207 51 28 34 31 15 14 23 17 22 19 0 0 0 0 0 0 0 0 0
0 0 0 0 0 0 0 0 0 7 25 85 161 265 297 288 266 194 178 266 238 387 573 542 561 517 351 437 204 25 28 25 37 42 31 33 18 17 16 9 0 0 0 0 0 0 0 0 0
0 0 0 0 0 0 0 0 0 0 35 43 131 252 258 243 304 257 212 240 378 448 510 325 326 349 273 197 66 20 18 12 20 21 40 40 28 8 4 6 0 0 0 0 0 0 0 0 0
0 0 0 0 0 0 0 0 0 0 8 43 92 138 169 212 243 287 268 259 429 444 563 451 355 290 211 195 4 21 22 21 26 26 33 34 36 7 4 8 0 0 0 0 0 0 0 0 0
0 0 0 0 0 0 0 0 0 0 0 3 60 66 96 198 245 281 389 374 358 413 645 642 328 221 177 201 21 18 31 25 35 23 27 29 23 10 0 0 0 0 0 0 0 0 0 0 0
0 0 0 0 0 0 0 0 0 0 0 0 0 22 74 79 172 259 402 464 396 534 725 750 383 178 218 210 93 54 69 36 16 25 14 15 8 13 1 0 0 0 0 0 0 0 0 0 0
0 0 0 0 0 0 0 0 0 0 0 0 0 0 25 74 88 247 402 493 459 609 770 754 530 259 224 229 178 120 121 76 6 22 0 0 3 2 4 0 0 0 0 0 0 0 0 0 0
0 0 0 0 0 0 0 0 0 0 0 0 0 0 1 30 85 199 353 465 548 642 767 749 627 411 247 227 201 139 110 48 18 20 6 1 0 0 2 0 0 0 0 0 0 0 0 0 0
0 0 0 0 0 0 0 0 0 0 0 0 0 0 0 0 29 150 326 417 505 617 679 682 636 556 320 261 219 143 76 12 12 14 13 6 6 2 0 2 0 0 0 0 0 0 0 0 0
0 0 0 0 0 0 0 0 0 0 0 0 0 0 0 0 0 3 62 233 375 451 553 593 599 552 458 337 244 140 24 0 2 6 3 3 7 4 5 15 2 0 0 0 0 0 0 0 0
0 0 0 0 0 0 0 0 0 0 0 0 0 0 0 0 0 0 0 19 192 266 389 414 449 457 435 400 303 214 60 0 0 3 36 61 12 21 12 20 0 2 0 4 1 0 0 0 0
0 0 0 0 0 0 0 0 0 0 0 0 0 0 0 0 0 0 0 0 0 50 219 268 290 338 324 356 320 270 181 11 0 0 2 51 58 56 20 12 0 0 10 21 19 5 4 0 0

GFSSGP_con_mucape_327.txt.gz
CAPE
798 584 427 197 0 0 5 0 6 27 15 23 80 148 146 132 35 45 292 515 792 1222 1422 1409 2101 2155 2104 2016 2177 2111 2214 2008 2032 2225 1743 1698 1626 1539 1501 1417 1432 1333 1188 1078 1061 909 737 506 347
373 333 218 0 0 0 1 1 4 0 19 55 128 189 194 116 192 262 433 611 909 1150 1216 1224 1955 2155 1941 2025 2083 2233 2250 2284 2009 1892 1858 1709 1593 1515 1451 1445 1339 1258 1173 1027 897 607 397 445 673
220 118 0 0 0 0 0 0 19 25 53 33 383 368 224 79 124 149 505 650 875 1112 1225 1342 1989 1790 1866 2202 2118 2332 2359 2269 2103 2075 2015 1719 1481 1403 1147 904 973 1166 1137 924 596 434 418 355 684
154 0 0 0 0 0 0 32 38 13 75 294 232 231 242 167 159 410 489 652 916 1082 1332 1422 1931 2047 1978 1887 1990 2185 2274 1865 1912 1844 1699 1701 1133 904 853 827 1196 1079 974 658 375 295 251 264 371
220 0 0 0 0 0 1 8 1 26 203 296 299 222 146 318 188 510 739 778 882 1074 1243 1394 1763 1951 1794 1654 1777 1796 2014 2104 1718 1786 1723 1089 995 824 825 933 1141 1023 892 432 196 57 57 77 170
16 0 0 0 0 0 0 11 97 90 344 280 177 164 182 345 459 605 750 719 865 994 1123 1301 1495 1481 1403 1475 1568 1542 1485 1565 1765 1617 1503 1198 930 772 687 692 1086 976 481 261 109 35 13 6 56
0 0 0 0 0 0 0 57 102 92 396 282 220 195 185 338 474 615 726 733 835 897 1017 1029 984 1109 1208 1328 1190 1235 1217 1281 1194 1209 1287 1256 1168 1007 677 809 871 709 444 277 120 41 10 0 0
0 0 0 0 0 0 0 120 178 115 231 290 169 103 223 135 453 634 666 640 787 756 618 317 322 331 394 363 660 658 706 616 583 481 380 419 519 619 582 597 893 911 583 343 159 30 4 0 0
0 0 0 0 0 0 0 0 183 164 345 357 326 141 267 93 519 560 546 597 539 444 136 133 24 127 192 184 200 305 330 262 226 194 149 180 188 180 161 182 328 698 714 409 175 37 0 0 0
0 0 0 0 0 0 0 0 280 340 328 260 214 225 256 139 551 473 483 455 505 238 172 7 3 102 124 110 158 36 19 30 58 62 149 48 14 16 2 12 65 187 222 292 191 49 0 0 0
0 0 0 0 0 0 0 86 306 296 328 326 248 332 268 205 502 487 508 477 444 240 92 6 376 239 391 211 2 0 0 0 3 22 25 0 0 0 0 0 0 0 0 0 0 0 0 0 0
0 0 0 0 0 0 0 92 341 344 358 359 313 408 314 218 410 428 586 572 354 191 33 47 166 138 17 60 0 0 0 0 7 10 6 0 0 0 0 0 0 0 0 0 0 0 0 0 0
0 0 0 0 0 0 0 14 288 457 419 363 400 425 317 166 343 399 517 492 307 222 149 47 398 44 139 54 3 18 0 0 1 0 0 0 0 0 0 0 0 0 0 0 0 0 0 0 0
0 0 0 0 0 0 0 0 92 228 363 403 397 398 287 200 283 503 502 448 354 227 309 87 474 138 265 131 85 6 0 0 0 0 1 0 0 0 0 0 0 0 0 0 0 0 0 0 0
0 0 0 0 0 0 0 0 67 157 518 448 331 249 209 403 262 325 385 238 362 379 526 501 299 164 390 265 221 218 5 0 0 0 0 0 0 0 0 0 0 0 0 0 0 0 0 0 0
0 0 0 0 0 0 0 0 43 594 555 517 394 174 88 323 730 289 341 261 209 272 334 306 70 71 377 282 156 105 64 72 2 0 0 4 1 0 0 0 0 0 0 0 0 0 0 0 0
0 0 0 0 0 0 0 0 0 618 513 522 407 209 128 488 542 510 583 514 333 295 515 395 249 125 123 87 149 136 64 8 5 0 0 0 2 0 0 0 0 0 0 0 0 0 0 0 0
0 0 0 0 0 0 0 0 38 505 548 531 404 213 155 414 164 488 566 540 579 457 424 389 420 281 543 365 312 73 119 9 15 7 3 0 0 0 2 0 0 0 0 0 0 0 0 0 0
0 0 0 0 0 0 0 0 27 204 491 508 432 69 96 265 311 275 242 403 490 526 512 428 430 346 394 303 166 202 6 0 3 7 9 7 0 0 5 0 0 0 0 0 0 0 0 0 0
0 0 0 0 0 0 0 0 13 52 389 427 449 234 156 244 141 285 247 297 324 467 605 463 454 389 581 286 114 0 0 0 0 0 6 9 4 0 0 0 0 0 0 0 0 0 0 0 0
0 0 0 0 0 0 0 0 0 28 124 396 377 372 214 229 235 221 297 319 265 325 317 263 446 511 481 259 93 27 4 3 1 0 0 12 13 7 0 0 0 0 0 0 0 0 0 0 0
0 0 0 0 0 0 0 0 0 13 62 99 287 385 327 273 227 191 218 291 389 318 263 209 212 361 413 433 256 109 22 0 0 0 0 5 12 14 0 0 0 0 0 0 0 0 0 0 0
0 0 0 0 0 0 0 0 0 0 3 0 81 324 351 335 334 309 274 266 340 296 230 178 166 239 505 408 357 190 54 0 0 0 0 4 13 20 5 0 0 0 0 0 0 0 0 0 0
0 0 0 0 0 0 0 0 0 0 0 0 1 224 326 314 245 221 256 231 269 300 243 140 99 137 268 359 358 235 83 1 0 0 0 0 3 9 6 0 0 0 0 0 0 0 0 0 0
0 0 0 0 0 0 0 0 0 0 0 0 0 159 329 361 307 227 192 266 260 274 212 205 252 249 291 417 340 215 70 6 0 0 0 0 0 5 2 1 0 0 0 0 0 0 0 0 0
0 0 0 0 0 0 0 0 0 0 0 0 0 43 399 404 365 300 261 230 283 254 240 169 275 343 371 437 294 154 74 13 0 0 0 0 0 0 0 0 0 0 0 0 0 0 0 0 0
0 0 0 0 0 0 0 0 0 0 0 0 0 10 151 348 347 396 415 315 286 311 289 330 267 181 261 313 175 120 90 37 0 0 0 0 0 0 0 0 0 0 0 0 0 0 0 0 0
0 0 0 0 0 0 0 0 0 0 0 0 0 0 0 129 284 320 285 471 471 364 297 324 323 202 227 218 152 123 111 74 0 0 0 0 0 0 0 0 0 0 0 0 0 0 0 0 0
0 0 0 0 0 0 0 0 0 0 0 0 0 0 1 59 253 340 424 370 452 465 343 281 389 348 268 234 170 100 104 65 0 0 0 0 0 0 0 0 0 0 0 0 0 0 0 0 0
0 0 0 0 0 0 0 0 0 0 0 0 0 0 0 0 0 51 106 166 313 374 369 305 392 476 430 327 232 150 91 52 5 3 0 0 0 0 0 0 0 0 0 0 0 0 0 0 0

GFSSGP_con_mucape_330.txt.gz
CAPE
872 756 346 154 10 3 0 18 40 11 15 11 51 14 45 15 44 76 302 450 843 1041 1208 1366 1852 1987 2068 2018 1966 2003 1889 2308 2067 2175 1921 1763 1662 1516 1534 1395 1342 1411 1188 1137 882 643 561 458 376
707 492 233 0 0 0 0 15 0 16 92 203 181 145 142 194 206 293 382 593 969 1032 1118 1282 1819 1985 1932 1940 2087 2021 2129 1965 1691 2081 1824 1686 1613 1484 1453 1423 1320 1254 1111 837 700 538 421 539 598
505 145 5 0 0 0 0 2 1 0 113 164 267 176 117 224 321 282 435 699 862 887 1040 1247 1828 1946 1943 2219 2143 2524 2416 2175 1829 1629 1495 1636 1469 1284 1345 1268 1151 1140 983 719 577 361 188 523 560
139 48 0 0 0 0 7 47 2 2 173 218 191 145 145 162 213 449 621 798 814 872 1111 1266 1655 1780 1707 1724 2053 1762 1934 2210 1833 1271 1549 1614 1285 910 881 813 1112 993 853 500 380 251 164 503 390
73 0 0 0 0 0 21 59 51 42 230 231 202 140 136 181 455 497 686 731 856 983 1088 1237 1733 1779 1622 1893 1892 1930 2145 1984 1818 1572 1478 700 722 757 771 831 1140 922 510 157 161 55 31 467 276
50 0 0 0 0 0 0 1 27 196 244 150 148 120 97 405 468 568 630 717 833 918 1033 1022 1138 1487 1478 1606 1464 1940 1978 1791 1715 1590 1488 931 468 617 620 689 900 389 140 37 24 45 120 167 29
1 0 0 0 0 0 0 0 47 277 219 151 173 137 264 492 539 478 562 669 813 943 955 846 853 973 1238 1415 1391 1499 1686 1646 1626 1575 1392 1086 967 901 645 974 702 289 160 66 39 56 69 52 0
6 0 0 0 0 0 0 0 182 307 302 198 148 83 168 383 421 422 515 622 719 776 731 679 620 596 631 566 719 722 796 754 853 740 470 397 459 680 865 778 716 398 241 114 118 84 0 0 3
0 0 0 0 0 0 0 34 136 308 293 175 150 96 146 404 380 387 430 475 513 482 426 399 364 344 285 232 205 277 268 194 193 138 167 166 158 251 373 506 602 637 488 242 60 6 0 0 0
0 0 0 0 0 0 0 15 140 425 249 202 196 120 269 400 338 295 326 436 335 87 87 115 194 183 145 96 49 44 42 48 44 69 72 38 22 7 46 193 318 462 400 299 119 15 2 0 0
0 0 0 0 0 0 0 0 263 353 366 286 239 186 386 383 318 264 279 227 88 12 0 3 55 67 36 6 5 6 15 37 62 57 4 0 0 0 0 0 0 0 0 1 0 0 0 0 0
0 0 0 0 0 0 0 31 380 343 407 267 276 226 382 386 308 298 325 183 75 18 0 0 1 6 4 3 1 0 0 13 4 13 0 0 0 0 0 0 0 0 0 0 0 0 0 0 0
0 0 0 0 0 0 0 220 392 388 396 304 276 200 321 407 291 302 292 177 84 9 0 0 127 56 2 0 0 0 0 0 1 5 0 0 0 0 0 0 0 0 0 0 0 0 0 0 0
0 0 0 0 0 0 0 159 387 388 381 375 257 175 260 453 346 382 330 250 101 42 0 28 1 1 2 0 0 0 0 1 1 0 0 0 0 0 0 0 0 0 0 0 0 0 0 0 0
0 0 0 0 0 0 2 252 368 429 448 364 293 247 228 387 383 415 378 310 176 27 1 63 45 2 48 9 0 0 0 0 0 0 2 0 0 0 0 0 0 0 0 0 0 0 0 0 0
0 0 0 0 0 0 5 33 172 409 455 413 352 325 258 351 400 447 456 329 191 96 45 73 133 122 160 113 7 1 0 0 0 0 0 0 0 0 0 0 0 0 0 0 0 0 0 0 0
0 0 0 0 0 0 0 63 487 514 427 390 395 334 258 162 417 478 465 329 197 102 66 67 171 122 288 146 123 32 6 3 1 0 0 0 0 0 0 0 0 0 0 0 0 0 0 0 0
0 0 0 0 0 0 0 75 683 611 495 464 365 313 149 66 153 252 424 426 234 158 204 81 61 65 288 227 122 134 75 64 2 0 0 0 0 0 0 0 0 0 0 0 0 0 0 0 0
0 0 0 0 0 0 0 49 717 668 547 442 360 205 67 3 224 145 399 349 235 148 213 157 118 69 166 173 61 66 31 28 2 4 0 0 0 0 0 0 0 0 0 0 0 0 0 0 0
0 0 0 0 0 0 0 52 578 662 592 478 452 311 134 1 155 391 577 487 390 338 278 334 206 158 69 57 156 51 7 2 1 0 1 0 0 0 0 0 0 0 0 0 0 0 0 0 0
0 0 0 0 0 0 0 0 120 567 566 456 415 301 111 0 3 238 326 417 524 482 459 441 363 170 130 310 152 104 5 8 0 0 0 0 0 0 0 0 0 0 0 0 0 0 0 0 0
0 0 0 0 0 0 0 0 0 188 421 427 390 309 52 0 7 118 169 239 326 379 402 411 533 335 171 283 193 109 0 0 0 0 0 0 0 0 1 0 0 0 0 0 0 0 0 0 0
0 0 0 0 0 0 0 0 0 0 99 234 325 329 209 64 34 112 292 256 278 321 354 315 461 574 410 488 156 26 1 0 0 0 0 0 0 3 12 1 0 0 0 0 0 0 0 0 0
0 0 0 0 0 0 0 0 0 0 0 9 236 325 334 225 138 173 273 247 313 288 327 366 311 212 242 407 583 119 65 8 0 0 0 0 0 0 4 4 0 0 0 0 0 0 0 0 0
4 3 0 0 0 0 0 0 0 0 0 5 58 228 384 424 243 188 220 249 276 335 315 310 312 261 141 219 425 230 420 126 27 6 0 0 0 0 1 2 0 0 0 0 0 0 0 0 0
10 0 0 0 0 0 0 0 0 0 0 0 90 113 322 440 438 350 302 266 299 325 373 377 315 266 115 120 156 343 491 273 166 34 0 0 0 0 0 0 0 0 0 0 0 0 0 0 0
2 3 0 0 0 0 0 0 0 0 0 0 0 50 84 308 444 487 505 462 390 320 342 381 253 168 123 143 176 260 314 390 277 68 7 0 0 0 0 0 0 0 0 0 0 0 0 0 0
0 0 0 0 0 0 0 0 0 0 0 0 0 0 46 217 440 513 451 371 329 318 296 316 255 217 151 170 181 217 314 376 292 118 20 0 0 0 0 0 0 0 0 0 0 0 0 0 0
0 0 0 0 0 0 0 0 0 0 0 0 0 0 0 36 275 396 368 362 307 255 245 271 240 199 159 173 270 292 373 350 256 124 53 0 0 0 0 0 0 0 0 0 0 0 0 0 0
0 0 0 0 0 0 0 0 0 0 0 0 0 0 0 0 94 341 395 397 301 300 278 253 238 205 219 187 163 198 209 231 187 149 102 31 0 0 0 0 0 0 0 0 0 0 0 0 0

GFSSGP_con_mucape_336.txt.gz
CAPE
547 466 377 149 17 30 0 0 8 0 0 3 0 22 21 15 25 0 33 99 261 549 799 1098 1736 1662 1410 1653 1711 1727 1696 1503 1761 1894 1853 1880 1768 1627 1462 1446 1232 1276 1263 1081 740 311 106 63 20
595 386 130 30 2 3 0 1 10 1 69 96 81 42 34 67 165 215 117 260 438 700 871 1089 1818 1594 1743 1701 1752 1590 1205 1330 1379 1536 1655 1480 1624 1540 1392 1227 1246 1178 1135 965 558 345 118 31 10
822 257 49 9 0 0 0 0 21 30 97 141 108 62 84 110 396 143 197 481 630 755 790 1144 1720 1639 1599 1534 1107 1140 1601 1867 1625 1245 1286 1282 1479 1352 1238 1054 1053 1099 1196 1032 471 189 43 5 4
454 110 0 0 0 0 0 11 26 131 82 190 136 124 121 121 165 228 448 585 641 651 775 1362 1754 1767 1628 1504 1369 1240 1395 1350 1682 1305 1257 1191 1275 1119 1073 905 1044 743 885 906 204 84 37 10 4
282 34 0 0 0 0 0 10 0 122 128 183 142 94 142 188 252 461 505 532 608 681 927 1164 1120 1448 1389 980 1019 1219 1110 1024 1042 1082 1138 1071 1097 953 873 617 916 645 881 839 212 89 19 9 2
199 0 0 0 0 0 0 0 3 107 191 168 145 141 182 495 349 489 460 571 660 708 788 723 780 1211 1141 1149 1395 999 1328 796 822 1224 1224 1061 792 673 561 486 800 633 827 530 174 30 7 0 0
7 0 0 0 0 0 0 7 59 165 214 193 142 109 297 482 481 596 468 585 570 547 490 489 546 903 953 863 1087 1096 1104 1188 1301 1193 1171 1043 977 772 378 556 585 250 275 407 253 34 6 0 0
4 0 0 0 0 0 0 28 173 198 197 193 146 123 360 728 677 643 357 376 324 433 405 430 492 490 411 428 576 841 854 931 960 682 516 560 659 717 710 352 317 320 81 191 347 58 14 9 6
13 0 0 0 0 0 7 58 152 182 177 146 72 147 170 690 535 494 363 302 243 309 431 414 423 431 381 285 339 471 515 309 236 242 328 401 265 160 152 205 274 222 115 23 298 44 1 12 6
86 0 0 0 0 0 0 50 233 243 170 111 390 284 415 542 388 172 341 230 439 248 379 340 346 335 304 377 419 405 253 192 163 159 153 170 177 148 119 123 109 171 105 75 248 31 0 0 0
10 0 0 0 0 0 0 46 294 298 217 194 250 684 810 677 169 309 543 482 463 210 285 257 179 100 81 100 148 174 106 77 59 69 89 91 100 57 29 2 0 0 0 0 6 0 0 0 0
0 0 0 0 0 0 0 129 361 332 272 187 349 472 683 356 115 258 489 581 247 146 196 145 85 51 33 7 0 0 23 2 4 0 0 6 4 0 0 0 0 0 0 0 0 0 0 0 0
3 0 0 0 0 0 36 232 435 398 282 271 447 505 623 266 111 98 389 360 204 135 141 92 71 43 1 0 0 0 2 0 0 0 0 0 0 0 0 0 0 0 0 0 0 0 0 0 0
18 0 0 0 0 0 85 186 413 376 336 471 607 652 741 281 326 335 386 241 167 113 120 79 37 0 0 0 0 2 5 0 0 0 0 0 0 0 0 0 0 0 0 0 0 0 0 0 0
23 0 0 0 0 0 130 281 397 333 388 550 642 542 807 630 468 467 522 174 182 93 84 74 1 0 0 0 0 0 0 0 0 0 0 0 0 0 0 0 0 0 0 0 0 0 0 0 0
31 0 0 0 0 2 23 36 282 320 387 642 850 632 776 607 547 721 595 135 83 38 38 0 0 0 0 0 0 0 0 0 0 0 0 0 0 0 0 0 0 0 0 0 0 0 0 0 0
2 0 0 0 0 1 13 2 361 371 366 584 736 723 917 748 726 579 520 151 35 2 8 0 0 0 0 0 0 0 0 0 0 0 0 0 0 0 0 0 0 0 0 0 0 0 0 0 0
0 0 0 0 0 0 4 46 505 439 360 401 608 593 840 907 695 607 382 169 67 4 0 0 0 0 0 0 0 0 0 0 0 0 0 0 0 0 0 0 0 0 0 0 0 0 0 0 0
0 0 0 0 0 0 7 167 617 426 339 301 345 654 765 823 650 684 283 248 179 119 64 6 0 0 6 19 0 0 0 0 0 0 0 0 0 0 0 0 0 0 0 0 0 0 0 0 0
0 0 0 0 0 0 118 144 338 602 413 355 339 412 591 736 541 570 322 301 275 182 26 8 1 5 41 40 20 10 11 7 4 5 0 0 0 0 0 0 0 0 0 0 0 0 0 0 0
0 0 0 0 0 1 229 157 129 256 435 393 350 278 334 436 437 439 401 371 353 356 52 32 29 19 77 115 88 37 15 1 2 1 0 0 0 0 0 0 0 0 0 0 0 0 0 0 0
0 0 0 0 0 0 6 9 86 170 264 373 330 317 346 360 427 518 469 406 404 373 168 45 24 9 15 84 246 78 45 3 3 1 0 0 0 0 0 0 0 0 0 0 0 0 0 0 0
0 0 0 0 0 0 0 0 38 54 197 118 405 377 381 417 428 545 528 459 423 310 328 188 197 41 4 15 172 161 68 59 4 2 0 0 0 0 0 0 0 0 0 0 0 0 0 0 0
0 0 2 0 0 0 0 0 0 0 43 94 155 360 321 382 429 424 435 327 312 267 307 352 429 218 30 22 31 94 13 8 58 3 2 0 0 0 0 0 0 0 0 0 0 0 0 0 0
0 1 10 15 2 0 0 0 0 0 7 104 177 292 316 521 451 403 304 194 249 308 300 522 203 269 163 118 147 211 49 99 72 6 2 3 2 0 0 0 0 0 0 0 0 0 0 0 0
0 2 0 0 0 0 0 0 0 0 0 0 27 153 304 451 507 500 431 229 203 155 224 226 190 144 282 146 140 122 115 62 88 148 4 4 10 5 9 12 5 0 0 0 0 0 0 0 0
0 0 0 0 0 0 0 0 0 0 0 0 0 16 144 246 337 428 400 308 145 92 113 165 186 200 191 214 174 142 124 108 49 97 122 176 43 142 40 47 12 7 1 0 0 0 0 0 0
0 0 0 0 0 0 0 0 0 0 0 0 0 0 3 72 206 322 378 394 320 132 61 62 107 199 217 213 212 185 145 123 64 33 27 97 166 189 240 53 39 13 7 0 0 0 0 0 0
0 0 0 0 0 0 0 0 0 0 0 0 0 0 0 0 48 136 223 354 399 351 134 97 119 128 159 205 267 295 291 220 209 186 163 10 35 102 174 160 132 22 9 0 0 0 0 0 0
0 0 0 0 0 0 0 0 0 0 0 0 0 0 0 0 6 46 94 185 312 436 392 233 141 172 192 242 307 350 355 321 300 301 193 40 51 47 126 252 341 196 47 0 0 0 0 0 0